Location: Celina Elementary School
(33.3262°N, 96.7767°W)
Time: 15:21:26
(UTC+00:00)

Cosmos 2221 - Visible Passes

Search period start: 04 July 2022 00:00
Search period end: 14 July 2022 00:00
Orbit: 591 x 614 km, 82.5° (Epoch: 03 July)

Date Brightness Start Highest point End Pass type
(mag) Time Alt. Az. Time Alt. Az. Time Alt. Az.
04 Jul 4.7 07:06:37 10° N 07:08:22 24° N 07:08:22 24° N visible
05 Jul 4.8 07:18:54 10° NNW 07:20:19 20° NNW 07:20:19 20° NNW visible
06 Jul 5.2 05:54:34 10° NNE 05:55:29 14° NE 05:55:29 14° NE visible
06 Jul 5.1 07:31:27 10° NNW 07:32:17 14° NW 07:32:17 14° NW visible
07 Jul 5.0 06:06:01 10° NNE 06:07:27 18° NNE 06:07:27 18° NNE visible
08 Jul 4.9 06:17:50 10° N 06:19:26 22° N 06:19:26 22° N visible
09 Jul 4.9 06:29:53 10° N 06:31:25 21° N 06:31:25 21° N visible
10 Jul 5.0 06:42:11 10° NNW 06:43:26 18° NNW 06:43:26 18° NNW visible
11 Jul 5.1 05:17:45 10° NNE 05:18:39 14° NE 05:18:39 14° NE visible
11 Jul 5.3 06:54:45 10° NNW 06:55:27 13° NW 06:55:27 13° NW visible
12 Jul 4.9 05:29:14 10° NNE 05:30:40 18° NNE 05:30:40 18° NNE visible
13 Jul 4.8 05:41:04 10° N 05:42:42 22° N 05:42:42 22° N visible
